User: anonymous   Login
Location: *
(49.4547°N, 7.9131°E)
Time: 11:36:26
(UTC+00:00)
Language:

SPOT 5 - Orbit

View from above orbital plane
View from above orbital plane
View from above satellite
View from above satellite

Ground track
Ground track

The orbit data is extracted from the following two-line orbital elements,

1 27421U 02021A   19321.82389006 +.00000069 +00000-0 +26149-4 0  9994
2 27421 098.2995 030.3979 0135932 138.4958 222.6649 14.52011566913894
Epoch (UTC): 17 November 2019 19:46:24
Eccentricity: 0.0135932
inclination: 98.2995°
perigee height: 622 km
apogee height: 815 km
right ascension of ascending node: 30.3979°
argument of perigee: 138.4958°
revolutions per day: 14.52011566
mean anomaly at epoch: 222.6649°
orbit number at epoch: 91389

The dashed part of the orbit path shows where the satellite is in the earth's shadow,  

DLR